User: anonymous
Location: South Tamworth Observatory
(43.8246°N, 71.3026°W)
Time: 18:52:32
(UTC-04:00)
Language:

Cosmos 1844 - Orbit

View from above orbital plane
View from above orbital plane
View from above satellite
View from above satellite

Ground track
Ground track

The orbit data is extracted from the following two-line orbital elements,

1 17973U 87041A   14109.20747148  .00000307  00000-0  18624-3 0  7177
2 17973 070.8981 187.5521 0029457 056.4451 009.8858 14.13907990389880
Epoch (UTC): 19 April 2014 04:58:45
Eccentricity: 0.0029457
inclination: 70.8981°
perigee height: 825 km
apogee height: 867 km
right ascension of ascending node: 187.5521°
argument of perigee: 56.4451°
revolutions per day: 14.13907990
mean anomaly at epoch: 9.8858°
orbit number at epoch: 38988

The dashed part of the orbit path shows where the satellite is in the earth's shadow,  

DLR